Location: ???????
(55.3754°N, 39.3545°E)
Time: 08:11:08
(UTC+00:00)

Cosmos 921 Rocket - Pass Details

Date: 14 April 2026
Orbit: 563 x 620 km, 75.8° (Epoch: 9 May)

Event Time Altitude Azimuth Distance (km) Brightness Sun altitude
Rises 20:51:25 0° 331° (NNW) 2,909 7.6 -24.6°
Reaches altitude 10° 20:53:49 10° 323° (NW) 1,995 6.4 -24.7°
Enters shadow 20:57:30 35° 269° (W) 1,006 4.1 -24.8°
